Theta_e
315 315 315 315 315 315 315 315 316 317 317 316 316 316 316 315 315 308 300 305 309 319 320 305 304 299 296 292 295 293 285 282 285 288 290 296 294 300 305 303 304 306 311 314 344
316 316 316 316 316 316 315 315 315 316 316 316 315 315 315 315 308 304 312 317 320 320 306 301 296 297 293 290 290 289 283 285 290 291 291 293 295 295 298 299 299 304 312 325 340
317 317 317 317 317 317 316 316 315 315 316 316 315 315 314 313 300 300 318 320 321 322 306 302 297 296 291 288 288 287 286 289 291 294 295 294 294 297 296 295 299 300 307 313 325
317 317 317 317 317 316 316 316 316 316 315 314 314 314 314 309 288 304 332 323 326 317 303 298 293 290 289 289 290 285 291 292 291 295 295 293 295 296 297 298 303 304 306 310 309
317 317 316 316 315 315 315 315 315 315 314 313 313 314 306 297 299 309 333 324 320 316 302 294 291 292 290 291 291 287 291 293 295 294 294 295 294 295 295 301 303 303 306 311 311
316 316 317 315 315 315 315 314 314 314 314 313 313 314 304 293 307 314 321 317 317 308 299 294 293 295 293 292 291 294 294 294 294 294 293 293 294 295 298 301 301 303 307 313 314
315 315 316 314 314 314 315 314 314 314 313 312 313 310 303 300 312 311 317 313 309 305 299 298 298 297 295 292 295 295 292 294 294 292 293 294 292 293 300 300 301 302 306 309 314
315 314 314 314 314 314 314 314 314 314 313 313 315 308 295 309 310 309 312 308 307 306 302 302 300 295 293 295 296 291 290 286 292 293 294 294 288 296 299 298 299 301 301 303 306
315 313 313 313 313 313 314 314 313 313 315 315 307 303 296 313 310 312 310 308 306 305 304 306 299 294 295 290 288 288 283 285 290 293 292 291 290 296 299 297 297 298 299 301 302
314 313 313 313 313 313 313 313 311 313 312 311 309 298 301 302 310 313 310 311 306 304 301 301 297 290 288 288 282 283 284 286 287 293 293 291 291 295 296 297 297 298 298 299 300
314 313 312 312 313 312 310 303 302 301 303 298 300 300 303 309 312 309 310 308 305 301 292 294 289 287 290 291 291 290 288 287 291 295 292 291 290 294 295 294 295 296 297 299 299
314 315 313 312 312 312 309 299 302 303 296 304 305 304 308 309 304 305 309 300 298 293 294 291 288 294 294 293 292 290 288 288 292 294 292 291 291 293 294 294 294 296 296 298 298
314 314 313 312 312 305 300 302 308 306 295 300 305 305 305 307 303 305 304 298 295 292 292 290 294 296 294 292 291 290 288 289 289 293 292 290 289 290 295 297 300 299 298 299 300
314 312 312 312 303 300 299 307 307 305 290 295 300 305 307 306 301 310 303 301 297 292 294 293 297 296 293 292 292 287 294 294 292 288 283 290 281 288 291 293 297 298 299 301 302
313 312 312 312 305 299 303 304 304 301 282 301 301 310 307 301 301 302 305 301 295 295 294 292 294 293 292 294 295 292 296 293 291 287 285 286 283 286 291 292 295 298 300 301 302
311 311 311 308 304 304 306 305 302 291 284 299 302 300 300 301 301 300 300 303 301 295 294 295 298 296 295 298 299 299 294 290 288 285 280 284 284 284 290 292 295 298 299 299 299
310 310 308 308 298 302 302 301 289 285 300 298 295 298 297 296 299 297 295 294 291 287 287 293 293 296 298 295 299 295 288 281 279 279 280 289 286 287 295 297 297 297 295 296 297
309 308 307 306 306 305 301 296 284 294 297 304 300 296 294 296 296 297 293 290 293 291 287 285 285 295 301 298 294 292 289 283 277 278 281 290 284 290 296 296 297 296 296 296 296
308 301 298 300 306 304 298 288 289 295 302 297 299 293 292 296 295 294 292 292 294 293 288 286 288 299 301 301 299 293 289 293 287 286 281 285 289 293 294 295 295 295 295 294 294
303 298 297 304 307 302 296 292 295 303 304 300 292 295 292 293 295 293 291 296 294 295 295 291 286 295 298 299 298 294 296 287 286 280 278 282 285 285 289 291 292 292 292 294 294
296 293 301 307 305 298 290 292 297 304 305 300 296 294 294 293 295 294 296 298 300 297 296 293 289 289 294 292 290 291 289 289 288 283 280 278 282 290 290 291 291 291 293 293 294
298 288 304 306 296 294 291 297 301 302 305 301 299 297 295 295 292 292 295 297 301 300 294 294 290 286 289 293 296 292 290 289 284 283 280 278 281 292 290 291 292 292 293 293 294
294 292 302 305 291 291 296 299 303 301 301 299 297 298 297 294 289 293 296 299 300 299 296 295 287 283 286 288 292 290 292 292 290 291 286 279 283 292 292 292 294 293 291 293 294
295 288 295 299 301 296 294 294 297 302 300 300 299 300 297 294 293 292 294 298 299 301 303 298 287 285 282 284 288 287 290 292 289 282 284 288 286 290 292 292 292 291 291 291 292
294 291 297 289 295 295 295 295 294 295 299 300 296 296 293 290 290 290 292 293 297 299 296 294 288 287 287 290 290 289 290 291 290 290 286 288 288 289 291 291 291 291 292 292 292
293 296 298 296 297 295 295 294 295 295 295 294 294 295 294 291 290 289 290 290 289 293 290 294 283 285 284 289 290 288 290 291 291 292 291 292 288 291 292 292 291 291 291 291 292
300 300 298 293 293 293 294 294 295 296 297 298 295 292 290 292 294 293 293 292 291 289 288 289 289 287 282 288 288 284 288 290 290 291 290 287 290 291 289 291 290 290 291 291 292
Wind_Speed
16 16 16 16 15 14 14 13 12 10 11 12 13 14 14 13 14 6 9 14 10 10 6 6 4 3 4 3 3 4 6 4 7 6 7 4 4 2 4 9 4 3 4 2 6
16 16 16 16 17 16 16 14 14 13 11 10 11 14 13 12 10 12 16 13 16 9 6 7 5 6 3 2 2 6 5 11 8 7 6 4 7 5 4 7 4 10 4 5 8
16 16 16 16 16 16 16 16 15 15 15 14 12 12 11 9 5 9 4 17 13 12 4 5 6 6 4 3 4 5 7 6 6 8 5 8 4 4 5 10 8 8 10 5 6
16 18 19 18 18 17 16 16 16 15 16 16 15 12 10 3 5 2 2 17 14 9 6 6 4 5 5 5 5 3 7 6 3 8 6 6 4 5 8 13 14 9 11 4 7
16 17 19 20 20 20 19 18 17 17 17 14 14 10 4 2 12 5 10 15 7 6 7 6 6 5 5 5 6 4 6 6 10 8 9 3 10 8 9 14 18 10 12 9 6
17 17 18 19 19 20 20 20 18 17 15 13 11 3 3 5 4 2 9 10 6 6 6 6 8 6 4 4 5 7 7 7 5 7 6 7 6 7 14 13 12 8 12 9 17
18 18 18 19 20 20 18 18 18 18 15 12 10 5 5 16 7 7 7 6 5 6 5 4 3 3 4 2 4 4 5 7 4 1 5 9 8 12 22 12 10 8 5 8 7
18 19 19 20 21 21 19 18 20 20 14 10 9 5 10 5 3 2 8 3 5 5 0 3 4 1 2 4 4 3 4 4 6 2 2 7 8 10 14 7 12 11 8 6 7
19 20 19 20 20 21 19 20 20 9 4 7 5 5 11 5 4 7 8 5 6 4 1 1 4 4 1 2 4 7 2 3 9 2 3 3 8 10 7 7 10 8 9 7 9
19 20 20 21 21 19 17 17 10 5 6 5 2 3 6 4 4 5 6 6 3 6 3 4 2 3 3 4 3 2 2 3 5 4 1 6 11 12 6 9 12 9 7 7 8
19 20 22 22 21 17 12 4 1 2 5 11 8 5 4 6 3 4 7 8 2 1 4 4 3 5 8 6 5 2 2 5 10 9 3 7 5 12 11 7 8 9 7 7 3
19 19 21 22 23 21 1 3 5 1 9 16 12 8 4 3 4 3 9 6 6 5 4 3 5 7 5 5 5 5 5 9 9 5 6 6 9 6 3 1 3 4 6 5 6
18 17 21 23 24 2 2 7 3 4 4 6 7 6 6 9 7 6 12 7 5 6 5 6 5 5 5 3 4 6 6 7 9 6 2 4 7 5 3 5 7 6 4 6 3
18 21 21 21 2 3 5 2 6 4 4 7 5 6 6 6 4 7 8 7 3 10 6 6 5 6 4 6 7 6 12 11 6 4 5 0 4 6 4 4 7 8 8 7 6
20 20 16 7 9 5 3 5 2 2 5 2 3 3 5 9 5 5 6 4 8 7 7 6 3 4 4 7 8 10 3 8 4 5 2 2 4 7 5 6 7 7 6 8 10
22 20 14 6 3 11 9 10 1 4 8 3 5 6 5 3 2 3 4 4 4 4 2 8 2 3 6 5 5 1 3 7 6 3 2 3 5 6 2 1 4 2 7 8 9
21 22 15 7 7 4 3 2 3 5 5 4 5 6 6 6 5 4 6 7 6 5 5 3 5 4 5 3 1 4 5 2 3 2 6 2 2 8 5 3 6 6 7 8 10
22 28 11 9 12 7 4 5 6 5 6 3 2 5 8 6 6 8 7 6 4 3 3 6 2 6 3 4 6 2 6 6 5 4 3 1 4 6 6 11 11 10 8 9 10
27 3 4 5 9 8 4 4 9 7 5 3 4 3 4 4 5 5 9 9 8 9 7 5 3 1 2 1 3 1 3 2 6 3 3 4 3 3 7 8 9 8 8 8 7
8 6 6 4 13 4 4 7 7 5 2 3 4 1 5 4 5 6 9 4 5 9 5 5 2 2 2 1 3 5 5 2 3 4 4 4 3 5 4 6 5 6 6 5 5
2 6 3 6 5 2 5 7 6 7 4 6 5 3 1 2 3 3 4 4 3 2 6 6 4 3 1 3 6 2 3 5 4 4 6 2 6 3 6 8 8 5 4 5 5
2 4 2 4 2 2 4 6 5 7 4 5 3 5 5 1 2 2 4 1 5 3 6 1 5 4 6 1 3 3 5 5 5 5 2 4 7 4 5 5 5 3 3 3 2
5 6 4 3 4 3 4 5 5 4 4 6 4 3 4 3 2 1 3 2 7 3 6 4 1 3 5 6 3 3 4 5 6 4 4 4 5 3 4 4 2 1 4 4 5
3 6 5 1 3 4 3 6 5 3 2 3 2 4 6 4 4 4 2 2 5 3 5 6 3 6 7 5 4 2 3 4 6 5 5 7 3 4 6 6 3 4 4 5 5
2 5 1 4 3 6 4 4 4 2 3 2 2 1 6 5 2 2 1 3 3 8 3 3 5 3 3 2 1 3 5 6 7 6 6 4 7 7 11 7 4 3 6 5 6
3 2 4 4 6 6 4 4 3 4 3 4 6 4 3 4 4 7 4 1 2 5 3 3 3 2 2 2 6 6 7 8 8 10 10 13 9 1 5 5 2 5 5 5 8
2 3 1 4 4 3 3 5 6 5 5 2 9 6 4 4 4 3 3 3 3 3 1 2 5 3 4 3 4 5 9 9 5 5 9 11 6 6 4 3 3 2 1 5 8
Wind_Direction
345 342 339 337 335 332 330 329 327 324 326 326 331 329 320 314 311 301 249 219 198 223 160 102 64 99 65 91 105 133 73 193 223 170 244 275 303 242 272 281 302 277 270 163 121
344 340 338 336 335 335 331 329 325 322 319 322 325 325 320 317 298 248 240 229 214 185 126 140 144 129 62 113 50 99 145 212 201 187 212 244 240 286 261 299 325 306 286 114 140
341 338 336 334 333 331 328 327 323 323 323 320 322 325 321 319 308 249 252 210 200 179 140 147 131 148 135 137 167 168 209 193 223 216 185 241 238 243 288 294 235 246 276 218 149
338 337 333 330 327 324 323 322 319 320 321 319 316 322 322 261 291 80 164 180 172 168 124 128 134 129 129 163 174 163 224 207 226 212 188 234 220 239 216 241 260 250 262 235 167
330 332 333 329 324 323 322 320 317 316 315 314 309 312 334 235 249 304 114 160 146 141 164 147 147 145 173 178 140 212 240 209 223 205 220 240 249 238 296 269 268 262 251 218 167
327 327 326 328 324 321 319 318 316 312 306 302 292 295 239 233 225 284 133 140 163 148 171 146 183 193 150 175 175 202 235 259 251 234 218 187 266 135 256 243 272 245 256 268 194
326 325 326 324 323 320 317 314 310 304 295 284 267 185 258 244 146 69 128 167 170 163 155 224 185 134 141 269 233 246 283 326 276 300 242 161 295 206 243 259 246 269 257 269 221
321 323 324 324 321 320 319 314 309 310 292 252 230 180 243 254 245 227 158 194 174 213 93 224 172 138 179 281 354 336 57 7 296 19 294 122 263 262 247 194 244 258 259 256 263
320 321 321 321 321 320 319 314 317 317 283 174 134 188 265 314 233 201 165 162 155 162 193 58 127 210 210 106 12 11 250 244 312 209 99 186 281 258 276 213 247 244 248 243 264
318 319 321 320 320 321 316 305 299 292 113 133 150 278 263 221 209 192 164 146 139 135 164 194 179 127 32 83 222 244 272 285 254 275 14 247 253 277 269 215 226 242 244 237 236
318 317 318 318 318 317 322 343 64 211 224 201 190 230 276 294 181 192 142 115 146 207 180 194 140 196 201 198 182 192 250 267 270 258 250 252 274 281 298 239 200 227 247 287 38
314 308 316 319 319 320 241 220 237 175 296 227 235 267 281 54 297 179 125 134 145 186 143 23 248 217 208 172 195 220 243 265 284 269 170 293 280 289 311 325 243 236 241 228 158
305 308 319 321 318 57 245 239 318 356 268 278 189 204 201 152 210 222 151 150 147 167 169 178 235 127 173 235 217 235 199 247 216 337 268 298 308 329 305 9 352 16 352 25 345
309 319 325 328 5 326 243 231 282 182 351 267 233 255 147 171 234 191 173 143 145 182 167 222 226 224 227 242 176 261 212 233 240 126 231 31 266 300 330 342 13 1 22 18 54
311 318 318 330 294 269 277 9 334 102 332 210 172 122 149 163 161 217 176 81 173 172 141 231 195 146 208 224 158 231 218 196 187 155 152 329 89 264 336 359 25 27 67 50 44
312 311 313 297 238 245 307 329 71 37 251 240 134 159 143 219 178 111 131 92 147 157 181 212 205 188 216 235 221 294 79 44 44 92 64 234 135 288 274 209 103 40 59 47 45
310 305 293 255 230 178 197 128 32 193 311 200 184 162 185 179 193 130 153 177 167 135 213 193 219 230 189 223 315 96 67 342 344 352 219 190 81 234 254 291 151 120 59 55 62
314 306 266 208 211 243 1 82 213 236 250 274 189 143 181 161 211 173 144 186 255 115 123 171 194 183 174 179 186 160 153 158 210 207 251 31 233 252 72 76 75 84 95 70 55
316 269 241 251 174 151 136 174 201 206 256 312 334 158 206 186 161 143 181 200 200 165 179 149 257 271 89 57 134 160 178 178 105 19 63 235 274 16 65 67 78 78 73 69 55
318 311 268 145 161 141 117 236 217 210 16 22 197 213 193 185 161 163 170 188 202 185 164 214 168 243 261 134 54 152 152 110 343 171 242 277 234 221 145 148 120 93 79 65 50
338 322 296 142 155 76 192 220 245 258 178 184 217 201 266 131 153 223 183 25 1 50 135 136 129 249 159 172 179 114 123 82 118 126 178 198 252 332 205 176 152 132 92 51 40
320 306 32 154 151 196 200 189 230 235 178 229 168 168 185 92 202 175 168 115 358 285 153 283 133 179 205 2 321 164 175 141 147 223 221 146 269 27 60 99 124 88 18 16 27
308 271 293 182 233 238 271 251 223 251 221 184 137 82 34 122 196 130 97 30 353 172 171 203 18 84 343 352 351 201 177 135 115 92 202 154 258 117 114 138 149 19 330 332 333
311 308 305 260 295 289 268 253 227 177 167 57 130 83 67 83 315 154 134 11 355 35 84 98 131 160 187 185 162 174 154 153 127 135 198 216 219 228 219 215 259 327 313 314 332
207 263 255 314 304 320 283 290 304 196 104 105 80 111 150 151 124 161 89 0 33 349 57 117 177 163 209 208 178 217 231 208 197 176 192 229 205 215 212 203 234 304 316 321 335
255 268 340 282 291 299 309 274 227 263 347 194 145 132 93 148 191 188 138 203 209 355 48 13 164 113 299 214 220 244 242 240 212 213 232 241 254 238 149 137 249 290 311 319 313
238 295 207 282 320 278 288 313 304 137 9 333 134 111 106 169 136 137 158 157 146 133 112 84 133 126 250 340 332 266 231 219 220 199 192 214 221 153 155 205 265 301 7 312 306